• In Österreich
  • Länderverzeichnis
  • Für 7 Tage
  • Wassertemperatur
  • Satellitenkarten
  • Wetterkarte
  • News
  • Widgets
  • user-avatar
    Anmelden

    Stündliche Wetter Constantine

    Heute, 18 Oktober, Mittwoch

    Zeit Temperatur Niederschläge Wind Luftdruck Luftfeuchtigkeit
    00:00 +19°C° 0 mm 1 m/S 714 mmHg 52%
    01:00 +19°C° 0 mm 1 m/S 713 mmHg 52%
    02:00 +19°C° 0 mm 1 m/S 713 mmHg 51%
    03:00 +18°C° 0 mm 2 m/S 712 mmHg 51%
    04:00 +17°C° 0 mm 2 m/S 712 mmHg 52%
    05:00 +17°C° 0 mm 2 m/S 712 mmHg 52%
    06:00 +17°C° 0 mm 2 m/S 712 mmHg 53%
    07:00 +19°C° 0 mm 2 m/S 712 mmHg 48%
    08:00 +21°C° 0 mm 2 m/S 712 mmHg 42%
    09:00 +24°C° 0 mm 2 m/S 713 mmHg 37%
    10:00 +25°C° 0 mm 2 m/S 712 mmHg 33%
    11:00 +26°C° 0 mm 2 m/S 712 mmHg 29%
    12:00 +27°C° 0 mm 3 m/S 712 mmHg 26%
    13:00 +27°C° 0 mm 3 m/S 712 mmHg 25%
    14:00 +27°C° 0 mm 3 m/S 711 mmHg 25%
    15:00 +27°C° 0 mm 3 m/S 711 mmHg 24%
    16:00 +25°C° 0 mm 2 m/S 710 mmHg 28%
    17:00 +24°C° 0 mm 2 m/S 710 mmHg 31%
    18:00 +23°C° 0 mm 2 m/S 710 mmHg 34%
    19:00 +21°C° 0 mm 2 m/S 710 mmHg 35%
    20:00 +21°C° 0 mm 2 m/S 710 mmHg 36%
    21:00 +20°C° 0 mm 2 m/S 710 mmHg 37%
    22:00 +20°C° 0 mm 2 m/S 710 mmHg 38%
    23:00 +19°C° 0 mm 2 m/S 710 mmHg 38%

    Morgen, 19 Oktober, Donnerstag

    Zeit Temperatur Niederschläge Wind Luftdruck Luftfeuchtigkeit
    00:00 +19°C° 0 mm 2 m/S 709 mmHg 39%
    01:00 +19°C° 0 mm 2 m/S 709 mmHg 40%
    02:00 +18°C° 0 mm 2 m/S 709 mmHg 41%
    03:00 +18°C° 0 mm 2 m/S 709 mmHg 42%
    04:00 +17°C° 0 mm 2 m/S 709 mmHg 44%
    05:00 +17°C° 0 mm 2 m/S 709 mmHg 45%
    06:00 +17°C° 0 mm 2 m/S 709 mmHg 46%
    07:00 +19°C° 0 mm 2 m/S 709 mmHg 41%
    08:00 +21°C° 0 mm 2 m/S 710 mmHg 36%
    09:00 +24°C° 0 mm 3 m/S 710 mmHg 31%
    10:00 +25°C° 0 mm 4 m/S 710 mmHg 29%
    11:00 +26°C° 0 mm 5 m/S 710 mmHg 28%
    12:00 +27°C° 0 mm 5 m/S 709 mmHg 26%
    13:00 +27°C° 0 mm 6 m/S 709 mmHg 27%
    14:00 +27°C° 0 mm 6 m/S 708 mmHg 28%
    15:00 +27°C° 0 mm 6 m/S 708 mmHg 29%
    16:00 +25°C° 0,1 mm 5 m/S 708 mmHg 32%
    17:00 +23°C° 0,1 mm 4 m/S 708 mmHg 35%
    18:00 +22°C° 0,1 mm 3 m/S 708 mmHg 38%
    19:00 +21°C° 0,3 mm 3 m/S 708 mmHg 42%
    20:00 +21°C° 0,3 mm 3 m/S 708 mmHg 46%
    21:00 +20°C° 0,3 mm 3 m/S 708 mmHg 50%
    22:00 +19°C° 0,7 mm 3 m/S 708 mmHg 56%
    23:00 +18°C° 0,7 mm 3 m/S 708 mmHg 61%

    übermorgen, 20 Oktober, Freitag

    Zeit Temperatur Niederschläge Wind Luftdruck Luftfeuchtigkeit
    00:00 +18°C° 0,7 mm 4 m/S 708 mmHg 67%
    01:00 +17°C° 0,8 mm 3 m/S 708 mmHg 69%
    02:00 +17°C° 0,8 mm 2 m/S 708 mmHg 72%
    03:00 +16°C° 0,8 mm 2 m/S 708 mmHg 74%
    04:00 +16°C° 0,2 mm 2 m/S 708 mmHg 76%
    05:00 +15°C° 0,2 mm 1 m/S 708 mmHg 77%
    06:00 +15°C° 0,2 mm 1 m/S 708 mmHg 79%
    07:00 +16°C° 0 mm 2 m/S 708 mmHg 72%
    08:00 +17°C° 0 mm 2 m/S 709 mmHg 66%
    09:00 +18°C° 0 mm 2 m/S 710 mmHg 59%
    10:00 +18°C° 0 mm 2 m/S 710 mmHg 55%
    11:00 +19°C° 0 mm 3 m/S 710 mmHg 51%
    12:00 +20°C° 0 mm 3 m/S 710 mmHg 46%
    13:00 +20°C° 0 mm 3 m/S 709 mmHg 48%
    14:00 +20°C° 0 mm 4 m/S 709 mmHg 49%
    15:00 +19°C° 0 mm 4 m/S 709 mmHg 51%
    16:00 +18°C° 0 mm 4 m/S 710 mmHg 57%
    17:00 +17°C° 0 mm 3 m/S 710 mmHg 63%
    18:00 +16°C° 0 mm 3 m/S 711 mmHg 70%
    19:00 +16°C° 0 mm 2 m/S 711 mmHg 72%
    20:00 +16°C° 0 mm 2 m/S 712 mmHg 75%
    21:00 +15°C° 0 mm 1 m/S 712 mmHg 78%
    22:00 +15°C° 0 mm 1 m/S 712 mmHg 80%
    23:00 +15°C° 0 mm 1 m/S 712 mmHg 81%

    21 Oktober, Samstag

    Zeit Temperatur Niederschläge Wind Luftdruck Luftfeuchtigkeit
    00:00 +15°C° 0 mm 1 m/S 712 mmHg 83%
    01:00 +14°C° 0 mm 1 m/S 712 mmHg 83%
    02:00 +14°C° 0 mm 1 m/S 712 mmHg 84%
    03:00 +14°C° 0 mm 1 m/S 712 mmHg 85%
    04:00 +14°C° 0 mm 1 m/S 712 mmHg 86%
    05:00 +14°C° 0 mm 1 m/S 712 mmHg 87%
    06:00 +14°C° 0 mm 1 m/S 712 mmHg 88%
    07:00 +15°C° 0 mm 1 m/S 713 mmHg 82%
    08:00 +16°C° 0 mm 1 m/S 714 mmHg 75%
    09:00 +19°C° 0 mm 1 m/S 714 mmHg 68%
    10:00 +19°C° 0 mm 2 m/S 714 mmHg 65%
    11:00 +19°C° 0 mm 2 m/S 714 mmHg 61%
    12:00 +20°C° 0 mm 2 m/S 714 mmHg 57%
    13:00 +20°C° 0 mm 2 m/S 714 mmHg 58%
    14:00 +20°C° 0 mm 2 m/S 714 mmHg 58%
    15:00 +21°C° 0 mm 2 m/S 714 mmHg 58%
    16:00 +20°C° 0 mm 2 m/S 714 mmHg 62%
    17:00 +20°C° 0 mm 1 m/S 714 mmHg 67%
    18:00 +19°C° 0 mm 1 m/S 714 mmHg 71%
    19:00 +19°C° 0 mm 1 m/S 714 mmHg 74%
    20:00 +18°C° 0 mm 1 m/S 715 mmHg 77%
    21:00 +16°C° 0 mm 0 m/S 715 mmHg 81%
    22:00 +15°C° 0 mm 0 m/S 715 mmHg 82%
    23:00 +15°C° 0 mm 0 m/S 715 mmHg 83%

    22 Oktober, Sonntag

    Zeit Temperatur Niederschläge Wind Luftdruck Luftfeuchtigkeit
    00:00 +15°C° 0 mm 0 m/S 714 mmHg 85%
    01:00 +14°C° 0 mm 0 m/S 714 mmHg 85%
    02:00 +15°C° 0 mm 1 m/S 714 mmHg 85%
    03:00 +15°C° 0 mm 1 m/S 714 mmHg 86%
    04:00 +15°C° 0 mm 1 m/S 714 mmHg 86%
    05:00 +15°C° 0 mm 1 m/S 714 mmHg 86%
    06:00 +15°C° 0 mm 1 m/S 714 mmHg 87%
    07:00 +16°C° 0 mm 1 m/S 714 mmHg 79%
    08:00 +19°C° 0 mm 1 m/S 715 mmHg 71%
    09:00 +21°C° 0 mm 1 m/S 715 mmHg 63%
    10:00 +21°C° 0 mm 2 m/S 715 mmHg 59%
    11:00 +21°C° 0 mm 2 m/S 715 mmHg 56%
    12:00 +22°C° 0 mm 3 m/S 715 mmHg 52%
    13:00 +22°C° 0,2 mm 3 m/S 714 mmHg 54%
    14:00 +22°C° 0,2 mm 3 m/S 714 mmHg 56%
    15:00 +22°C° 0,2 mm 3 m/S 714 mmHg 59%
    16:00 +21°C° 0,2 mm 3 m/S 714 mmHg 66%
    17:00 +19°C° 0,2 mm 3 m/S 714 mmHg 73%
    18:00 +18°C° 0,2 mm 3 m/S 714 mmHg 80%
    19:00 +18°C° 0,1 mm 2 m/S 714 mmHg 82%
    20:00 +17°C° 0,1 mm 2 m/S 714 mmHg 85%
    21:00 +17°C° 0,1 mm 2 m/S 715 mmHg 87%
    22:00 +17°C° 0,1 mm 2 m/S 714 mmHg 87%
    23:00 +17°C° 0,1 mm 2 m/S 714 mmHg 88%

    23 Oktober, Montag

    Zeit Temperatur Niederschläge Wind Luftdruck Luftfeuchtigkeit
    00:00 +16°C° 0,1 mm 1 m/S 714 mmHg 88%
    01:00 +16°C° 0,1 mm 1 m/S 714 mmHg 88%
    02:00 +16°C° 0,1 mm 1 m/S 714 mmHg 88%
    03:00 +16°C° 0,1 mm 1 m/S 713 mmHg 88%
    04:00 +16°C° 0,1 mm 1 m/S 713 mmHg 88%
    05:00 +16°C° 0,1 mm 1 m/S 713 mmHg 89%
    06:00 +15°C° 0,1 mm 1 m/S 713 mmHg 89%
    07:00 +16°C° 0 mm 2 m/S 713 mmHg 83%
    08:00 +17°C° 0 mm 2 m/S 714 mmHg 77%
    09:00 +18°C° 0 mm 3 m/S 714 mmHg 71%
    10:00 +18°C° 0 mm 3 m/S 714 mmHg 65%
    11:00 +19°C° 0 mm 4 m/S 714 mmHg 60%
    12:00 +19°C° 0 mm 4 m/S 713 mmHg 55%
    13:00 +19°C° 0 mm 4 m/S 713 mmHg 55%
    14:00 +19°C° 0 mm 4 m/S 713 mmHg 54%
    15:00 +19°C° 0 mm 4 m/S 713 mmHg 54%
    16:00 +18°C° 0 mm 4 m/S 713 mmHg 60%
    17:00 +17°C° 0 mm 3 m/S 713 mmHg 66%
    18:00 +16°C° 0 mm 3 m/S 712 mmHg 72%
    19:00 +16°C° 0 mm 2 m/S 713 mmHg 75%
    20:00 +15°C° 0 mm 2 m/S 713 mmHg 77%
    21:00 +15°C° 0 mm 2 m/S 713 mmHg 80%
    22:00 +15°C° 0 mm 2 m/S 713 mmHg 82%
    23:00 +14°C° 0 mm 2 m/S 712 mmHg 84%
    Mehr zeigen